Location: Le Vaud
(46.4779°N, 6.2346°E)
Time: 18:15:21
(UTC+00:00)

Cosmos 2061 Rocket - Pass Details

Date: 18 February 2020
Orbit: 965 x 1014 km, 82.9° (Epoch: 31 March)

Event Time Altitude Azimuth Distance (km) Brightness Sun altitude
Rises 05:30:15 0° 349° (N) 3,714 6.9 -11.8°
Reaches altitude 10° 05:32:48 10° 347° (NNW) 2,754 6.2 -11.3°
Maximum altitude 05:39:04 71° 266° (W) 1,034 4.0 -10.2°
Drops below altitude 10° 05:45:13 10° 183° (S) 2,706 6.4 -9.2°
Sets 05:47:43 0° 181° (S) 3,644 7.1 -8.8°
